Lapse_Rate
7.0 6.9 6.9 6.9 6.9 6.8 7.0 6.9 6.6 6.4 6.2 6.0 5.9 5.8 5.8 5.7 5.7 5.9 5.9 5.7 5.5 5.6 5.4 5.3 5.4 5.5 5.5 5.3 5.6 5.8 5.7 5.7 5.6 5.7 5.5 5.4 5.3 5.2 5.5 5.7 5.7 5.8 5.7
7.0 6.8 6.9 6.8 6.9 6.9 7.2 6.9 6.6 6.4 6.2 6.0 5.8 5.8 5.8 5.7 5.7 5.7 5.7 5.7 5.4 5.3 5.3 5.2 5.3 5.2 5.3 5.4 5.5 5.4 5.5 5.6 5.7 5.8 5.8 5.6 5.7 5.5 4.9 5.3 5.5 5.6 5.8
7.1 6.8 6.8 6.9 7.1 7.3 7.2 6.9 6.6 6.4 6.2 5.9 5.6 5.6 5.5 5.5 5.5 5.6 5.6 5.5 5.3 5.1 5.0 5.1 5.0 5.1 5.1 5.2 5.4 5.6 5.6 5.6 5.7 5.7 5.7 5.8 5.9 5.7 5.2 5.1 4.9 5.2 5.4
7.0 6.8 6.8 7.1 7.3 7.5 7.3 7.1 6.9 6.7 6.3 5.9 5.7 5.8 5.9 5.9 5.9 5.9 5.8 5.7 5.5 5.6 5.3 5.1 5.1 5.2 5.1 5.1 5.3 5.5 5.8 5.8 5.7 5.7 5.9 5.9 6.0 6.0 5.8 5.6 5.4 5.3 5.6
7.3 7.1 7.0 7.2 7.3 7.3 7.1 7.0 6.7 6.6 6.4 6.1 6.1 6.4 6.5 6.5 6.4 6.2 6.0 5.9 5.7 5.6 5.5 5.4 5.2 5.1 4.9 5.1 5.3 5.4 5.6 5.7 5.6 5.6 5.7 5.8 5.8 5.8 5.8 5.7 5.5 5.3 5.2
7.4 7.3 7.5 7.6 7.5 7.4 7.0 6.8 6.7 6.7 6.6 6.4 6.4 6.4 6.1 6.1 6.3 6.4 6.3 5.8 5.5 5.5 5.4 5.1 5.0 5.1 5.1 5.1 5.2 5.5 5.5 5.4 5.3 5.2 5.3 5.3 5.2 5.3 5.5 5.6 5.6 5.5 5.4
7.6 7.6 7.7 7.6 7.5 7.6 7.4 7.2 7.1 6.8 6.7 6.4 6.3 6.3 6.1 6.2 6.4 6.3 6.1 5.8 5.5 5.3 5.3 5.2 5.0 5.1 5.0 5.0 5.0 5.0 4.8 4.8 5.0 4.9 5.1 5.4 5.7 5.8 6.0 6.0 5.8 5.7 5.6
7.7 7.6 7.6 7.6 7.5 7.7 7.7 7.4 7.1 7.1 6.8 6.5 6.3 6.2 6.3 6.2 6.0 5.7 5.7 5.5 5.2 5.3 5.4 5.4 5.5 5.5 5.4 5.2 5.2 5.0 5.0 4.8 4.9 5.0 5.2 5.1 5.5 5.7 5.7 5.9 5.9 5.9 5.9
8.1 7.9 7.7 7.5 7.5 7.8 7.5 7.3 7.1 6.9 6.6 6.5 6.3 6.2 6.6 6.2 5.9 5.6 5.3 5.4 5.3 5.3 5.1 5.2 5.2 5.0 5.0 5.0 4.9 4.9 5.1 5.4 5.6 5.5 5.1 4.8 4.9 5.0 5.1 5.1 5.6 5.9 5.8
7.2 7.0 7.1 7.2 7.2 7.4 7.3 6.7 6.8 6.8 6.6 6.6 6.2 6.0 6.0 5.8 5.6 5.4 4.7 5.0 5.1 5.1 4.7 4.5 4.3 4.4 4.5 4.6 4.6 5.1 5.2 5.0 4.9 4.8 4.8 4.6 4.6 4.5 4.5 4.9 5.1 5.4 5.4
6.3 5.4 5.9 6.1 6.8 7.0 6.9 6.4 6.7 6.9 6.7 6.5 6.2 5.9 5.6 5.4 5.3 5.4 5.3 5.3 5.1 5.1 4.9 4.6 4.6 4.5 4.5 4.5 4.6 4.4 4.2 4.3 4.0 4.0 3.8 3.7 3.7 4.1 4.2 4.5 4.9 5.1 5.3
7.2 6.2 6.6 5.7 6.4 6.1 6.3 6.0 6.0 6.6 6.3 6.3 6.0 6.1 5.6 5.4 5.1 5.7 5.9 5.6 5.0 4.9 4.7 4.6 4.6 4.5 4.5 4.2 4.0 3.7 3.5 3.6 3.8 3.4 3.3 3.3 3.6 3.8 4.0 4.1 4.2 4.3 4.4
7.1 7.0 6.7 6.3 6.7 5.7 5.6 5.4 5.7 5.7 5.8 6.0 5.9 5.9 5.5 5.2 5.6 5.9 5.6 5.0 4.9 4.9 4.7 4.3 4.3 4.3 4.1 3.9 3.8 3.7 3.9 4.0 3.8 3.5 3.6 3.8 3.5 3.7 4.1 4.3 4.5 4.7 4.8
6.9 7.3 7.0 6.8 6.0 5.6 6.1 5.7 5.3 4.9 5.5 5.6 5.7 5.4 5.7 5.8 5.7 5.6 5.3 5.1 4.8 4.4 4.0 4.1 4.3 4.3 4.1 4.0 4.0 3.8 3.7 3.7 3.8 3.9 4.2 4.1 3.9 4.2 4.5 4.6 4.5 4.7 4.7
6.6 7.1 7.2 6.9 6.1 5.7 5.8 4.9 4.8 5.3 5.6 5.6 5.4 5.5 6.1 6.0 5.6 5.2 5.2 4.8 4.2 3.8 3.8 4.1 3.9 3.6 3.7 3.9 3.9 3.8 4.0 4.1 3.9 3.8 4.0 4.0 4.1 4.3 4.6 4.5 4.6 4.5 4.4
7.1 7.0 7.0 6.8 6.4 6.4 5.3 4.8 5.2 5.6 5.5 5.3 5.5 5.9 6.3 6.2 5.3 4.9 4.7 4.3 3.9 4.0 4.0 4.1 4.2 4.0 3.9 4.1 4.3 4.4 4.4 4.6 4.5 4.4 4.7 4.7 4.6 4.7 4.6 4.5 4.2 4.1 4.2
6.9 6.7 6.9 6.9 6.5 5.9 5.1 5.2 5.4 5.3 5.5 5.5 5.7 6.1 6.0 5.5 5.0 4.6 4.4 3.7 3.5 3.8 3.9 4.0 4.0 4.1 4.3 4.6 4.8 5.0 5.1 4.7 4.6 4.6 4.4 4.3 4.2 4.0 3.9 4.1 4.2 4.3 4.4
6.8 6.9 6.8 6.5 6.1 5.7 5.4 5.4 5.2 5.4 5.4 5.8 6.1 5.8 5.4 4.7 4.3 4.4 4.0 3.7 3.8 3.9 4.1 4.1 4.2 4.6 4.9 5.2 5.3 5.3 5.0 4.7 4.4 4.3 3.9 4.0 4.0 4.1 4.3 4.5 4.6 4.8 5.0
6.9 6.9 6.7 6.5 6.2 6.0 5.5 5.5 5.6 5.7 5.8 5.6 5.8 5.3 5.1 4.3 4.5 4.4 3.9 4.0 4.3 4.6 4.9 4.7 4.8 5.2 5.2 5.3 5.2 4.8 4.6 4.5 4.2 3.8 3.9 4.2 4.4 4.5 4.7 4.8 4.9 5.0 5.1
7.0 6.8 6.7 6.8 6.4 6.0 5.8 5.7 5.8 6.0 6.0 5.7 5.6 5.4 4.8 4.5 4.6 4.2 3.9 4.2 4.7 5.2 5.1 5.2 5.4 5.5 5.5 5.2 4.8 4.4 4.3 4.3 3.9 3.9 4.2 4.5 4.7 4.8 4.8 4.7 5.0 5.3 5.1
6.8 6.3 6.6 6.5 5.9 5.7 5.8 5.8 5.8 6.0 5.9 5.6 5.6 5.1 4.7 4.8 4.6 4.1 4.2 4.5 5.3 5.4 5.3 5.6 5.7 5.6 5.5 4.8 4.5 4.5 4.3 4.1 4.0 4.2 4.6 4.9 5.0 5.0 4.9 4.8 4.8 4.8 4.6
6.2 6.5 6.3 6.0 5.9 5.9 5.9 5.7 5.9 6.0 6.0 5.7 5.4 4.9 4.8 4.4 4.1 4.2 4.4 5.1 5.4 5.5 5.5 5.7 5.6 5.4 5.1 4.7 4.8 4.5 4.4 4.3 4.5 4.8 4.9 5.1 5.1 5.0 4.8 4.6 4.8 4.9 4.8
6.4 6.3 6.1 6.0 5.8 5.7 5.6 5.8 6.0 6.2 5.7 5.4 5.0 4.8 4.4 4.0 4.0 4.5 4.8 5.3 5.5 5.5 5.6 5.6 5.6 5.3 5.2 5.0 5.0 4.9 4.6 4.6 4.9 5.1 5.2 5.4 5.1 4.8 4.9 4.9 5.1 5.2 5.0
6.2 6.0 6.1 5.8 5.8 5.8 6.0 6.1 6.1 6.0 5.4 4.9 4.9 4.5 3.9 4.0 4.3 4.7 5.2 5.3 5.4 5.5 5.8 5.8 5.7 5.4 5.2 5.1 5.1 5.1 4.8 4.7 5.0 5.2 5.3 5.5 5.1 4.8 5.1 5.2 5.1 5.0 4.7
5.8 5.7 5.3 5.3 5.3 5.5 5.6 6.1 5.4 5.5 5.1 4.8 4.4 4.0 3.7 4.1 4.3 4.7 5.1 5.2 5.5 5.8 5.9 5.9 5.8 5.6 5.5 5.2 5.1 5.1 4.9 4.8 5.0 5.1 5.2 5.4 5.0 5.3 5.2 5.1 4.9 4.8 4.7
5.8 5.5 4.2 4.9 5.4 5.4 6.2 5.9 4.9 5.1 4.8 4.6 4.3 4.0 3.7 3.9 4.3 4.6 5.1 5.2 5.6 5.9 6.0 6.0 6.0 5.9 5.7 5.1 4.9 4.8 4.9 5.0 5.0 5.1 5.2 5.3 5.0 5.2 4.9 5.0 4.7 4.3 4.6
Wind_Speed
11 9 11 8 7 7 6 6 6 6 6 6 6 6 6 6 6 6 6 6 7 6 5 5 5 4 4 4 4 4 4 3 2 2 3 3 6 7 7 13 14 11 9
11 11 11 9 9 8 7 6 6 7 6 7 6 6 5 5 5 6 6 5 6 6 5 5 5 3 6 5 4 5 4 4 3 3 2 3 4 7 5 6 6 13 11
12 13 11 10 9 8 8 7 6 7 6 5 6 6 5 4 3 2 5 6 6 6 5 5 4 5 4 2 3 4 3 3 4 3 3 2 2 3 3 4 5 6 11
14 13 13 11 10 9 8 7 7 7 7 6 6 6 5 3 5 4 5 6 5 5 5 5 4 5 5 3 4 4 3 4 3 3 2 2 1 3 2 2 4 2 3
14 13 12 10 9 8 8 6 7 7 7 7 7 6 6 4 3 6 5 5 6 4 3 3 3 5 7 4 3 2 3 3 3 3 2 2 3 3 2 2 2 3 2
14 13 10 10 10 9 8 8 8 7 7 7 7 7 6 3 9 9 8 5 4 4 4 4 3 6 5 5 6 6 5 2 1 1 1 1 3 2 2 2 2 3 4
11 10 10 11 12 11 10 9 8 7 7 7 7 6 6 4 7 7 8 5 4 3 4 4 4 3 4 2 2 2 1 1 2 4 3 3 2 3 2 2 2 2 3
11 12 11 12 13 12 11 10 7 6 8 6 6 6 6 4 7 7 8 5 4 3 1 5 6 6 7 7 3 4 5 6 5 2 5 5 6 5 4 4 4 3 3
13 13 12 12 13 13 10 9 7 7 5 5 5 6 6 5 8 9 6 3 1 2 3 4 5 6 8 9 3 4 6 7 8 10 10 11 11 13 8 1 3 2 3
9 10 11 11 12 10 8 8 4 5 5 5 5 4 4 6 7 9 6 2 1 2 4 4 7 6 6 8 5 4 6 7 6 7 7 7 9 11 13 6 4 4 2
10 8 10 10 9 7 5 3 4 5 6 5 6 4 4 4 4 7 8 4 3 1 2 4 4 5 6 7 8 5 7 6 11 6 6 6 6 5 5 5 6 5 4
16 15 16 11 10 8 9 4 5 6 6 6 5 4 4 5 7 7 7 6 6 3 3 3 4 8 8 10 8 12 14 13 5 5 5 7 6 6 6 6 8 9 12
14 13 12 12 12 12 11 9 3 3 4 5 4 4 3 2 4 7 8 7 5 2 3 7 9 8 10 8 12 15 14 4 4 5 6 7 6 6 7 6 8 12 13
17 16 11 10 9 4 7 6 5 4 4 4 4 4 3 0 3 3 4 3 4 4 5 4 6 8 10 11 10 7 4 4 4 5 5 5 5 3 5 6 8 8 9
14 10 9 6 8 9 6 7 6 4 4 5 4 4 5 3 4 6 6 4 4 2 2 2 3 3 5 6 4 4 4 4 3 2 3 4 6 6 7 6 7 8 9
14 8 7 8 8 6 7 4 10 6 6 5 8 6 4 4 4 9 9 8 4 2 2 3 5 4 6 5 5 5 4 3 2 3 5 6 7 5 5 6 6 7 9
12 10 8 8 8 7 5 6 6 3 6 4 6 7 7 7 10 10 7 4 3 4 3 4 5 6 6 5 4 3 2 3 4 5 6 5 4 4 4 4 4 5 8
10 9 9 8 8 7 7 7 5 6 5 3 4 8 10 11 11 6 4 2 3 4 4 5 6 5 5 4 3 2 3 4 5 5 4 4 2 2 4 4 6 6 7
10 7 7 6 7 8 6 6 5 5 4 3 1 3 3 6 8 4 10 4 3 4 3 4 4 5 4 3 2 2 3 5 5 3 3 1 3 3 4 5 6 12 12
6 9 7 6 6 7 5 5 4 4 4 4 4 4 2 3 3 1 4 2 3 4 4 4 4 3 2 2 2 2 4 4 4 3 2 2 3 4 5 7 6 7 8
6 7 10 6 6 6 5 5 5 5 5 4 4 2 6 3 4 4 2 2 3 3 4 4 4 3 2 1 2 3 3 3 3 3 1 3 5 4 5 6 7 7 7
7 8 7 7 5 5 5 5 5 5 5 4 2 2 3 3 3 1 2 2 2 2 2 3 4 3 1 1 3 3 3 3 3 2 3 3 3 4 5 5 6 6 6
6 8 6 5 6 7 6 5 5 5 4 3 2 2 2 1 1 2 2 1 2 3 3 3 2 1 2 3 3 2 3 3 3 3 3 3 3 4 5 6 6 6 6
7 7 7 5 5 5 5 5 4 5 4 2 1 2 3 2 3 3 1 1 2 3 4 2 1 3 3 4 4 5 4 5 5 3 3 3 4 5 5 6 5 7 6
5 5 6 6 6 5 5 5 4 3 3 2 2 3 1 4 4 2 0 1 2 3 4 2 4 6 5 5 6 6 5 5 5 3 4 4 6 8 7 6 6 6 7
9 8 5 6 3 5 5 5 3 3 3 3 2 2 3 4 4 2 1 2 2 2 2 2 6 10 7 6 7 9 6 4 5 3 4 4 5 6 5 7 9 6 8
Wind_Direction
155 149 145 151 152 142 144 151 146 136 148 137 125 112 109 114 121 107 102 113 94 86 73 84 73 60 58 41 37 36 36 26 9 13 22 337 16 5 357 7 19 28 24
152 143 147 144 142 140 148 150 144 135 136 137 132 117 114 115 124 125 124 111 112 106 101 88 90 80 63 46 52 52 44 16 43 10 329 343 20 359 350 19 21 22 16
145 147 146 146 148 152 154 150 136 129 132 122 114 111 109 97 87 102 122 127 121 111 126 117 136 105 85 75 75 64 46 31 32 48 335 326 326 7 342 10 10 12 3
151 152 155 159 157 157 150 137 136 134 127 122 114 113 111 103 102 97 112 105 103 117 135 132 141 119 126 101 72 66 64 49 31 38 1 333 334 321 345 347 355 353 348
153 156 161 152 148 137 128 130 127 123 125 122 119 104 100 100 95 106 119 126 128 134 162 176 161 155 155 152 118 84 81 61 25 14 350 344 331 346 353 322 317 322 313
154 155 148 146 135 131 134 140 135 129 124 119 118 125 118 103 123 136 149 156 145 151 205 237 223 192 180 171 166 164 153 124 25 348 295 299 282 270 313 327 340 12 336
150 144 150 145 145 146 141 143 137 136 129 126 130 129 124 134 134 123 133 127 151 211 221 231 259 252 225 257 252 210 285 348 168 183 211 232 259 228 230 285 260 217 235
146 147 152 152 151 143 149 147 138 134 141 146 147 145 146 159 139 133 127 123 96 60 150 230 225 235 225 210 239 321 321 314 308 251 208 239 231 258 220 219 233 254 289
157 155 153 150 145 150 155 150 132 133 138 152 157 159 156 153 148 139 122 120 96 3 355 353 311 263 252 202 202 260 297 301 305 300 291 283 256 261 266 186 265 186 264
162 150 141 138 139 156 154 142 139 131 139 141 160 171 189 167 170 149 138 134 112 327 339 343 340 302 256 207 209 242 280 267 287 310 312 307 292 282 288 216 184 223 218
109 114 127 142 136 108 102 109 127 130 136 144 153 178 210 194 218 191 168 163 183 253 327 309 303 286 250 242 230 227 243 279 295 281 284 290 290 273 264 236 204 198 198
146 152 146 151 143 142 130 117 133 143 149 154 154 179 214 210 209 218 200 199 178 173 247 269 272 272 265 267 277 268 266 274 270 274 278 280 275 275 272 263 251 218 221
132 139 147 158 156 158 144 139 133 158 152 156 180 184 221 221 226 216 209 227 216 209 232 243 252 258 270 276 269 278 289 260 247 249 248 256 257 262 280 281 272 262 260
152 167 161 143 150 96 80 103 138 195 177 165 179 194 194 202 219 214 218 244 262 256 271 296 283 278 276 272 287 281 268 249 239 249 269 273 277 273 275 274 275 277 275
155 147 140 123 136 145 137 152 160 201 170 165 176 166 157 187 231 208 193 215 232 249 299 294 311 312 305 296 266 255 278 275 257 257 269 278 286 288 288 304 307 306 297
155 148 141 145 156 142 137 103 50 128 156 187 171 165 211 197 234 229 230 238 230 45 348 290 294 280 273 280 285 295 293 290 287 287 291 287 290 303 312 319 320 315 305
147 136 154 152 144 146 136 145 143 94 117 169 184 205 198 208 226 240 253 273 282 102 230 265 262 268 272 271 274 260 259 291 298 295 297 313 321 326 349 317 310 320 310
130 156 158 160 150 148 156 166 150 156 177 219 236 212 232 239 244 230 196 158 284 213 235 261 271 270 273 274 263 253 304 314 307 305 313 310 357 319 305 306 296 291 291
144 157 155 151 158 153 152 153 163 160 179 196 297 279 239 242 268 132 172 219 256 285 268 268 259 270 274 249 262 291 299 299 299 302 292 328 320 293 298 287 286 293 290
151 150 145 154 153 151 151 153 159 158 184 210 221 240 319 344 343 290 228 241 254 255 270 269 280 270 260 253 263 315 301 296 305 301 305 345 301 289 285 290 294 293 293
152 153 159 153 162 157 153 172 169 170 187 206 225 230 223 219 278 254 276 248 228 259 286 294 305 312 287 242 298 307 297 295 288 293 302 299 303 295 290 289 289 290 289
153 159 157 160 150 144 153 156 167 172 167 172 236 253 228 214 226 223 187 228 264 284 291 299 312 320 238 260 307 306 287 282 289 294 276 272 284 294 290 289 290 294 294
158 144 134 127 148 143 138 155 168 148 156 186 221 341 292 246 113 151 180 305 346 337 339 335 335 307 277 296 311 280 274 271 267 247 272 280 282 283 288 293 297 313 318
142 135 143 147 137 141 153 156 144 137 145 177 239 242 220 178 156 171 164 4 8 355 343 324 295 284 301 313 316 299 282 262 268 260 264 276 286 291 286 292 296 301 304
66 101 133 131 136 130 135 119 141 147 159 151 204 201 170 151 153 161 276 58 38 3 331 2 335 313 304 316 321 310 288 266 280 299 276 266 271 281 279 284 289 296 295
101 80 48 28 103 142 152 129 150 141 141 177 181 213 157 156 160 179 192 76 32 337 321 5 359 353 331 326 331 323 312 268 284 283 277 274 275 281 284 286 293 289 285